Regional Weather Roundup
Issued by NWS Northern Indiana

Home | Current Version | Previous Version | Text Only | Print | Product List | Glossary On
Versions: 1 2 3 4 5 6 7 8 9 10 11 12 13 14 15 16 17 18 19 20 21 22 23 24 25 26 27 28 29 30 31 32 33 34 35 36 37 38 39 40 41 42 43 44 45 46 47 48 49 50
000
ASUS43 KIWX 101000
RWRIWX

KIWX WEATHER ROUNDUP
NATIONAL WEATHER SERVICE NORTHERN INDIANA
600 AM EDT THU JUL 10 2014

NOTE: "FAIR" INDICATES FEW OR NO CLOUDS BELOW 12,000 FEET WITH NO
SIGNIFICANT WEATHER AND/OR OBSTRUCTIONS TO VISIBILITY.

* THESE STATIONS ARE NOT UNDER NWS QUALITY CONTROL. THEY ALSO MAY NOT
  REPORT WEATHER SUCH AS PRECIPITATION OR FOG.

INZ001>027-101100-
NORTHERN INDIANA

CITY           SKY/WX    TMP DP  RH WIND       PRES   REMARKS
GARY*          PTCLDY    57  57 100 CALM      30.11S FOG
VALPARAISO     CLEAR     57  55  93 CALM      30.11S
KNOX*            N/A     51  49  94 CALM      30.10S VSB<1/4
SOUTH BEND     CLEAR     56  52  86 CALM      30.12R
GOSHEN         CLEAR     55  52  89 N3        30.11R FOG
MONTICELLO*    CLEAR     56  55  94 CALM      30.10R
WARSAW*          N/A     52  52 100 CALM      30.11R FOG
ANGOLA*        CLEAR     55  54  94 CALM      30.11R
FORT WAYNE     PTCLDY    58  55  90 NW3       30.10R
PERU/GRISSOM   PTCLDY    60  60 100 NE3       30.10R

$$
INZ028>050-101100-
CENTRAL INDIANA

CITY           SKY/WX    TMP DP  RH WIND       PRES   REMARKS
LAFAYETTE      CLEAR     59  56  89 N6        30.10R
KOKOMO*        PTCLDY    61  55  82 N5        30.10R
MUNCIE*        PTCLDY    60  56  86 N3        30.09R
INDIANAPOLIS   PTCLDY    62  56  80 NE7       30.07R

$$
MIZ043>046-050>051-056>058-064>065-071>073-077>080-101100-
SOUTHWEST LOWER MICHIGAN

CITY           SKY/WX    TMP DP  RH WIND       PRES   REMARKS
BATTLE CREEK   CLEAR     55  51  86 N6        30.12R
BENTON HARBOR  CLEAR     52  51  97 CALM      30.12R
COLDWATER*     CLEAR     56  54  93 CALM      30.11R
HILLSDALE*     CLEAR     54  54  99 CALM      30.11R
HOLLAND        CLEAR     54  51  90 CALM      30.13R
GRAND RAPIDS   PTCLDY    56  53  90 CALM      30.13R
KALAMAZOO      CLEAR     53  51  93 N5        30.13R
STURGIS*       CLEAR     55  54  94 N5        30.11R
THREE RIVERS*  FAIR      54  54 100 CALM      30.12R

$$
OHZ001>008-015>018-024>025-101100-
NORTHWEST OHIO

CITY           SKY/WX    TMP DP  RH WIND       PRES   REMARKS
DEFIANCE       CLEAR     56  53  90 CALM      30.09R
FINDLAY        CLEAR     57  54  89 W3        30.07R
TOLEDO EXPRESS CLEAR     57  53  86 NW5       30.07R
TOLEDO METCALF CLEAR     60  55  83 NW5       30.07S
LIMA           CLOUDY    63  56  78 N6        30.08R

$$
&&



USA.gov is the U.S. government's official web portal to all federal, state and local government web resources and services.